Wetbulb
57.04 57.10 57.43 57.40 57.43 57.39 57.55 58.08 58.35 58.84 59.30 59.82 60.40 60.81 60.86 60.66 59.68 60.99 56.97 60.11 61.92 65.21 62.37 60.48 58.87 58.13 58.49 56.52 57.06 56.30 49.16 47.54 49.33 50.04 51.92 55.22 53.40 56.65 58.38 57.58 58.88 60.48 62.82 69.11 73.57
56.48 56.69 56.95 56.87 57.10 57.21 56.66 57.23 57.71 58.35 58.84 59.45 60.07 60.18 60.23 60.23 60.54 59.16 64.09 65.27 64.91 65.33 58.48 58.28 56.15 56.60 54.20 54.74 55.08 51.78 48.41 48.51 52.96 53.56 52.83 54.90 54.02 55.27 54.64 55.54 56.73 58.33 60.33 66.11 68.95
56.26 56.78 56.80 56.53 56.22 56.78 56.75 56.59 57.19 57.86 58.67 59.17 59.63 59.76 59.80 59.52 57.95 59.83 66.67 64.67 65.59 63.63 60.70 60.79 58.95 55.98 52.59 54.21 53.65 51.65 47.82 51.52 53.15 54.23 54.90 54.33 53.67 55.47 53.56 53.10 55.83 56.43 58.43 59.91 64.08
55.53 55.66 55.76 55.77 55.69 56.31 56.24 56.40 56.72 57.33 58.24 58.57 58.86 59.60 59.96 60.43 52.06 58.66 67.76 66.02 66.06 62.11 61.16 58.56 56.53 53.80 51.84 51.80 53.96 50.27 52.29 52.22 53.25 53.89 53.45 52.83 54.69 53.44 53.92 54.25 57.38 58.19 60.06 60.52 60.19
55.43 55.15 55.60 55.57 55.65 55.97 56.14 55.93 56.15 56.71 57.10 57.72 58.44 59.66 59.26 58.24 58.37 61.75 67.70 65.94 61.46 60.93 60.30 57.16 55.13 54.28 51.55 53.13 53.46 51.96 52.30 53.77 53.96 53.57 53.20 53.81 52.37 52.69 53.40 56.17 57.29 57.84 57.94 57.91 59.67
54.83 54.99 54.99 55.07 55.38 55.45 55.73 55.92 56.14 56.35 56.55 57.45 58.52 58.97 59.10 54.61 61.49 61.71 60.32 60.43 60.85 60.48 58.92 57.61 56.03 56.58 54.21 53.24 52.64 53.97 53.27 53.06 53.79 53.65 53.93 52.40 52.54 53.42 54.26 56.26 56.16 56.80 56.55 57.55 58.45
54.33 54.37 54.56 54.72 55.01 55.27 55.55 55.64 55.63 56.06 56.63 57.74 59.02 60.18 57.07 56.64 61.78 61.70 60.89 60.89 61.29 59.50 57.34 58.85 57.99 55.44 55.06 52.89 55.17 53.73 50.94 53.19 53.20 53.46 52.84 54.30 50.93 51.15 54.83 56.07 55.31 55.70 56.53 57.18 59.64
54.06 53.81 54.02 54.32 54.76 54.93 55.42 55.39 55.55 56.23 57.21 58.22 59.48 59.39 55.46 62.55 62.77 60.51 61.46 59.81 60.66 60.38 59.04 59.74 59.04 56.17 54.82 56.19 54.15 51.61 51.32 47.51 51.87 52.99 53.24 52.57 47.45 52.89 55.14 54.84 54.56 55.53 55.93 56.83 58.79
53.66 53.41 53.62 53.97 54.49 54.67 54.51 54.71 56.39 57.78 58.48 59.44 58.64 58.33 54.73 62.45 58.39 60.40 60.87 58.56 59.13 59.18 59.56 59.20 57.34 54.75 54.90 50.50 49.21 50.34 45.70 47.32 49.31 53.40 52.60 51.35 48.59 53.16 55.46 54.99 54.73 55.51 55.89 56.31 57.89
53.46 52.99 52.91 53.40 53.89 54.02 53.83 54.30 58.14 57.12 58.92 60.85 60.23 57.05 59.53 56.84 59.36 59.06 60.79 60.25 57.74 57.04 56.33 55.71 54.50 51.96 52.00 50.17 43.79 46.90 47.42 48.92 47.92 51.63 52.05 50.69 50.18 52.73 54.22 54.81 54.85 55.14 55.65 56.23 56.53
53.23 52.83 52.48 52.88 53.27 53.25 55.36 60.80 58.87 57.95 60.84 56.74 57.55 56.27 56.66 59.93 60.64 58.56 59.76 57.96 57.37 55.66 51.26 54.69 50.96 48.69 50.86 52.33 51.98 50.60 49.14 48.18 51.09 52.64 51.64 50.61 50.45 51.86 53.91 53.92 53.85 54.41 55.38 56.30 57.45
52.64 52.41 52.46 52.59 52.80 53.05 55.35 59.43 58.51 58.46 53.14 57.92 57.93 57.70 59.10 58.95 55.46 57.27 59.35 54.57 53.69 50.13 53.03 51.36 49.12 51.83 52.10 51.37 50.23 49.91 47.78 47.23 49.63 51.24 50.60 49.78 49.33 51.80 53.13 53.79 54.56 54.51 55.44 56.55 57.56
51.67 51.61 51.91 52.39 52.24 56.78 59.94 58.49 61.66 60.63 53.60 55.18 57.91 56.52 56.77 57.34 54.50 55.59 57.13 55.15 52.32 50.78 50.89 49.49 51.20 53.37 51.23 50.17 48.27 48.46 47.34 47.64 47.59 50.44 51.64 50.17 48.38 50.24 52.98 54.67 55.51 56.10 56.93 57.10 57.53
51.21 51.08 51.48 51.11 55.40 60.41 58.36 62.22 61.25 62.19 49.62 53.00 54.24 55.75 57.51 57.73 52.92 57.85 58.45 55.43 52.54 49.76 51.24 50.85 53.31 51.53 50.43 48.92 49.33 46.12 50.64 49.92 48.82 47.33 43.48 50.53 42.54 49.59 51.95 53.01 54.40 55.58 56.02 56.16 56.93
50.94 50.86 51.06 51.44 58.05 58.09 59.17 60.78 61.21 60.20 41.98 54.49 54.13 59.25 57.48 54.41 55.08 54.82 58.49 55.89 51.03 51.50 51.91 49.30 50.38 50.49 49.02 49.53 51.30 48.62 51.67 49.88 49.25 47.14 46.72 46.63 43.99 47.30 52.18 51.06 53.02 55.03 55.64 56.65 57.32
50.49 50.53 50.60 56.37 59.96 61.81 60.96 60.91 59.74 49.29 41.53 51.89 54.69 52.36 52.41 53.46 53.87 55.05 54.36 56.24 55.60 52.17 52.45 51.20 54.25 52.76 51.68 52.37 52.04 52.32 49.98 49.76 49.47 47.42 41.68 45.76 45.28 46.17 48.78 50.99 53.00 55.48 55.94 56.69 56.76
49.94 49.66 50.13 56.60 56.15 59.48 61.75 58.14 48.21 43.39 52.06 49.54 50.83 52.20 52.02 51.79 52.60 53.01 51.64 50.93 48.82 46.02 46.48 50.18 50.58 52.98 53.52 50.37 52.49 50.96 47.87 41.17 40.12 40.55 40.86 48.41 45.62 48.28 52.57 53.14 53.39 53.55 54.59 55.82 56.27
48.28 48.32 55.81 58.79 58.35 60.71 60.20 52.82 42.74 48.34 49.16 52.81 51.20 50.93 48.64 50.71 51.00 51.71 51.00 49.14 52.45 50.93 47.69 44.89 43.47 50.34 53.13 51.11 48.95 49.12 48.84 42.34 35.40 37.28 40.74 48.23 43.07 46.99 54.57 55.97 55.75 54.86 55.44 57.18 57.01
47.53 57.73 57.83 57.74 57.02 60.80 55.34 46.06 46.38 48.92 49.73 48.94 49.73 46.24 46.84 49.13 49.03 49.32 48.81 48.50 50.31 50.98 45.63 44.59 44.50 51.41 51.94 52.44 51.41 48.34 46.06 50.18 44.60 44.70 40.95 44.25 47.41 52.26 53.58 53.97 54.58 54.45 55.33 56.25 57.88
48.78 55.18 56.52 57.27 57.11 57.95 51.54 45.12 49.29 51.24 49.85 49.77 44.98 47.04 44.24 47.19 47.90 48.02 48.25 50.58 49.59 51.58 52.62 48.56 42.46 49.49 51.06 52.24 51.44 49.39 50.86 43.96 44.44 36.42 35.64 40.95 43.05 44.53 49.92 51.00 51.26 52.84 53.67 56.27 58.22
52.19 51.78 54.35 55.93 58.60 51.93 45.65 48.72 50.86 52.00 50.04 47.81 46.28 45.38 46.74 46.57 47.39 46.65 47.06 49.63 50.58 49.80 50.95 49.02 46.30 45.36 48.56 46.54 45.78 46.61 45.68 46.87 46.29 43.69 36.50 36.17 41.25 51.37 51.19 51.93 52.88 54.00 54.58 55.47 56.30
52.04 47.95 55.23 55.20 50.41 53.20 47.43 47.62 45.07 48.78 49.36 47.71 48.51 47.45 45.86 46.71 45.33 45.52 45.25 47.73 50.71 49.63 45.06 48.67 45.43 41.16 43.49 48.55 49.20 47.67 45.89 46.92 40.39 39.01 40.82 39.98 40.68 52.40 53.33 53.57 52.08 53.21 53.49 55.71 56.47
46.84 50.06 55.46 53.72 44.60 46.12 45.97 44.57 44.72 43.29 44.27 44.76 44.01 45.48 46.58 43.77 40.31 43.73 44.37 48.14 48.06 46.80 45.02 46.02 42.23 35.31 36.80 41.58 45.68 44.35 46.09 46.03 46.44 44.20 38.08 35.35 38.91 51.69 52.38 53.14 54.28 51.64 51.40 54.07 55.48
48.29 46.02 49.63 50.80 49.30 44.87 43.49 43.22 42.83 45.60 44.14 44.67 44.00 44.56 43.21 42.46 44.98 42.23 42.84 45.80 46.78 45.99 48.54 45.67 40.30 36.56 33.43 36.57 41.30 39.18 41.31 43.07 42.09 38.37 37.73 38.47 40.55 45.40 47.99 49.32 52.04 52.07 52.10 53.07 52.46
49.57 46.76 46.98 42.64 45.60 44.95 44.95 44.19 42.18 42.10 45.65 45.54 42.61 42.72 42.12 39.42 41.31 40.76 43.03 43.74 45.09 47.08 45.24 44.73 36.34 38.59 39.51 40.88 41.16 40.32 40.00 40.53 39.05 40.14 36.08 39.85 40.08 44.83 47.85 48.95 50.61 52.76 52.14 52.24 52.12
44.30 43.53 45.71 43.94 46.48 44.54 43.23 43.17 42.21 43.44 42.89 41.36 40.93 42.52 42.84 40.00 40.93 38.52 41.03 41.62 40.66 43.72 42.70 44.66 37.29 38.79 36.25 39.68 39.59 37.44 39.42 39.77 39.83 40.14 39.62 40.10 40.04 46.68 49.47 49.66 49.70 50.18 51.76 51.50 52.10
49.55 49.33 46.35 44.53 45.27 43.62 43.54 43.98 42.69 43.52 43.36 44.15 42.75 41.76 40.59 42.15 44.24 44.34 44.46 44.11 43.01 40.41 39.58 39.49 37.89 35.74 31.86 37.77 37.40 33.32 37.84 39.26 40.41 42.20 40.68 37.03 42.21 46.47 45.51 46.81 48.20 49.11 51.25 51.81 52.47
MSLP
1017.34 1016.90 1016.45 1016.03 1015.61 1015.20 1014.86 1014.58 1014.29 1013.99 1013.70 1013.36 1013.00 1012.64 1012.41 1012.22 1011.38 1011.14 1009.64 1008.81 1008.55 1008.46 1008.61 1007.78 1006.77 1006.21 1005.91 1005.01 1004.37 1003.82 1003.47 1001.91 1000.34 999.11 998.28 999.12 999.90 1000.05 1000.48 1000.34 1000.55 1000.61 1001.51 1001.78 1002.36
1017.42 1016.98 1016.54 1016.07 1015.62 1015.18 1014.78 1014.43 1014.13 1013.81 1013.49 1013.18 1012.85 1012.50 1012.35 1012.15 1010.88 1009.08 1008.42 1008.32 1008.39 1008.50 1008.19 1006.58 1005.64 1005.39 1005.01 1004.37 1003.68 1003.80 1002.84 1001.27 999.72 999.22 998.54 998.92 999.95 999.98 1000.83 1000.85 1000.87 1001.33 1002.28 1002.62 1002.72
1017.49 1016.99 1016.51 1016.07 1015.62 1015.16 1014.72 1014.32 1013.98 1013.65 1013.30 1012.97 1012.65 1012.25 1012.13 1011.95 1009.86 1007.28 1007.86 1007.84 1008.22 1008.45 1007.88 1006.76 1005.12 1004.62 1004.29 1003.43 1002.96 1002.87 1002.30 1000.82 1000.38 1000.29 999.87 999.70 1000.24 1000.57 1000.97 1000.89 1000.96 1001.33 1002.07 1002.82 1002.86
1017.65 1017.07 1016.50 1015.99 1015.48 1015.00 1014.58 1014.16 1013.80 1013.47 1013.12 1012.79 1012.52 1012.11 1011.64 1010.82 1008.04 1007.19 1007.56 1007.71 1008.10 1008.01 1007.31 1005.65 1005.00 1004.28 1003.75 1002.66 1002.47 1002.14 1001.86 1001.32 1001.30 1000.76 1001.10 1001.11 1000.92 1001.05 1001.32 1001.26 1000.88 1001.28 1001.62 1002.33 1002.90
1017.72 1017.10 1016.46 1015.86 1015.34 1014.80 1014.31 1013.90 1013.56 1013.28 1013.01 1012.68 1012.43 1012.21 1010.85 1009.14 1006.53 1006.88 1007.31 1007.65 1007.75 1007.32 1006.34 1004.90 1004.39 1003.86 1003.18 1002.30 1002.00 1001.86 1001.90 1001.30 1001.68 1001.66 1002.00 1001.96 1001.71 1001.58 1001.37 1001.48 1001.32 1001.70 1002.36 1002.87 1003.28
1017.65 1017.00 1016.38 1015.73 1015.10 1014.56 1014.07 1013.58 1013.23 1012.98 1012.76 1012.48 1012.34 1012.26 1010.91 1007.67 1005.82 1006.75 1006.55 1006.90 1006.79 1005.82 1004.98 1004.80 1004.03 1003.48 1003.02 1002.28 1001.84 1001.84 1001.74 1001.41 1001.72 1001.81 1002.12 1002.24 1002.09 1001.88 1001.86 1001.69 1001.52 1001.86 1002.47 1002.82 1003.49
1017.59 1016.89 1016.22 1015.51 1014.87 1014.27 1013.70 1013.22 1012.85 1012.58 1012.46 1012.36 1012.34 1011.80 1009.57 1006.54 1004.85 1005.66 1006.00 1005.87 1005.40 1005.25 1004.95 1004.48 1004.53 1004.24 1003.46 1002.81 1002.38 1002.20 1002.12 1001.83 1001.74 1001.71 1001.93 1001.92 1001.90 1001.60 1001.46 1001.51 1001.58 1001.89 1002.50 1002.76 1002.90
1017.48 1016.77 1016.00 1015.26 1014.55 1013.95 1013.35 1012.77 1012.37 1012.15 1012.06 1011.92 1012.11 1011.21 1008.04 1004.93 1004.56 1004.86 1005.19 1005.22 1005.09 1005.17 1005.22 1004.92 1004.89 1004.60 1003.86 1003.28 1002.64 1002.55 1002.47 1001.68 1001.05 1001.22 1001.57 1002.10 1001.50 1000.81 1000.81 1001.30 1001.43 1002.02 1002.10 1002.27 1002.52
1017.40 1016.55 1015.83 1015.05 1014.22 1013.52 1012.95 1012.41 1011.84 1011.62 1011.64 1011.79 1011.57 1010.04 1006.29 1004.81 1004.56 1004.44 1004.71 1004.54 1004.54 1005.03 1005.09 1005.24 1005.27 1004.56 1003.69 1003.38 1002.76 1002.18 1001.58 1000.92 1000.32 999.82 1000.88 1001.53 1001.43 1000.54 1000.05 1000.76 1001.21 1001.64 1001.78 1001.88 1002.01
1017.61 1016.50 1015.52 1014.60 1013.93 1013.20 1012.45 1012.11 1011.53 1011.41 1011.26 1010.62 1009.44 1008.37 1005.10 1004.04 1003.96 1004.38 1004.38 1004.33 1004.22 1004.70 1004.84 1005.03 1004.69 1004.16 1003.37 1002.73 1001.63 1000.66 1000.53 999.96 999.60 999.69 1000.43 1000.85 1000.79 1000.72 1000.34 1000.26 1000.71 1001.08 1001.31 1001.41 1001.54
1017.54 1016.51 1015.34 1014.28 1013.52 1012.96 1012.07 1011.00 1011.07 1010.22 1009.11 1007.19 1005.68 1004.91 1003.53 1003.47 1003.35 1003.92 1004.08 1004.37 1004.27 1004.45 1004.32 1003.87 1003.51 1002.80 1002.15 1001.54 1001.25 1000.92 1000.79 1000.52 999.75 999.35 999.83 1000.01 1000.15 1000.40 1000.24 1000.06 999.87 1000.01 1000.26 1000.59 1000.76
1017.29 1016.04 1014.94 1013.88 1012.96 1012.44 1012.25 1009.49 1007.56 1007.43 1006.37 1005.10 1004.22 1003.54 1003.12 1003.03 1003.44 1003.84 1003.90 1004.31 1004.21 1004.03 1003.65 1003.29 1002.25 1002.11 1001.78 1001.55 1001.41 1001.47 1001.52 1001.15 1000.68 1000.29 1000.16 999.97 999.70 999.86 999.89 999.76 999.49 999.27 999.29 999.66 999.96
1017.42 1016.15 1014.86 1013.56 1012.40 1011.43 1009.75 1007.87 1007.47 1006.95 1006.06 1003.49 1002.37 1002.26 1002.24 1002.88 1002.97 1002.90 1003.50 1003.80 1003.60 1003.51 1003.03 1002.28 1001.29 1001.34 1001.88 1002.11 1001.92 1001.84 1001.74 1001.41 1001.06 1000.63 1000.26 1000.11 999.53 999.55 999.24 998.84 998.69 998.48 998.54 998.86 999.18
1017.36 1016.11 1015.02 1013.60 1012.08 1009.62 1008.02 1007.62 1007.08 1007.11 1005.82 1002.16 1001.80 1001.98 1002.18 1002.51 1002.56 1002.79 1002.69 1003.39 1003.30 1003.11 1002.57 1001.98 1001.38 1001.14 1001.50 1001.85 1001.87 1001.55 1001.42 1001.18 1001.08 1001.13 1000.69 1000.53 999.04 998.73 997.97 997.35 997.03 997.31 997.89 998.19 998.75
1017.14 1015.88 1014.84 1014.69 1012.24 1008.95 1008.52 1007.75 1007.43 1007.41 1004.75 1001.73 1001.73 1002.27 1001.88 1002.34 1001.87 1002.35 1002.45 1002.62 1002.91 1002.51 1002.55 1001.99 1001.34 1000.95 1001.39 1001.61 1001.55 1001.40 1001.49 1001.74 1001.85 1001.80 1001.47 1000.77 1000.03 998.29 997.74 996.79 996.26 996.30 997.02 997.50 998.21
1016.66 1015.58 1015.00 1012.52 1011.31 1008.86 1008.26 1008.02 1007.78 1006.95 1003.31 1000.92 1001.46 1001.89 1002.24 1002.22 1001.93 1002.07 1002.55 1002.87 1002.72 1002.70 1002.47 1002.16 1001.80 1001.38 1001.15 1001.15 1001.28 1001.59 1001.91 1001.90 1002.14 1002.03 1001.20 1000.31 999.82 997.24 997.04 996.11 995.41 994.91 995.93 996.93 997.68
1016.30 1014.77 1014.78 1012.56 1009.80 1008.88 1008.59 1008.01 1007.30 1005.40 1002.19 1001.52 1001.54 1002.12 1002.04 1001.90 1001.84 1001.97 1002.27 1002.75 1002.90 1002.86 1002.46 1001.90 1001.33 1001.01 1000.85 1000.63 1000.77 1001.11 1001.70 1001.51 1001.57 1001.24 999.99 999.31 998.29 997.45 996.81 996.44 996.06 995.98 996.07 996.79 997.48
1015.93 1013.77 1012.01 1010.72 1009.62 1009.12 1008.74 1008.25 1006.90 1004.64 1003.48 1002.89 1003.20 1003.18 1003.16 1002.76 1002.23 1001.98 1002.13 1002.23 1002.26 1002.45 1002.11 1001.64 1000.92 1000.47 1000.12 1000.06 1000.09 1000.56 1001.24 1001.68 1001.35 1001.59 1001.10 999.85 998.13 997.15 996.55 996.14 996.62 996.64 996.71 996.92 997.59
1015.41 1011.96 1010.32 1010.07 1009.72 1009.33 1008.60 1007.48 1006.41 1005.95 1006.30 1005.65 1004.92 1004.23 1003.56 1002.94 1002.64 1002.74 1002.88 1002.58 1002.70 1002.80 1002.80 1002.39 1001.65 1001.42 1001.03 1000.93 1000.88 1000.44 1000.32 1001.03 1001.45 1001.96 1001.87 1000.38 999.45 997.81 996.63 996.03 996.42 996.91 997.14 997.37 997.73
1015.85 1012.40 1009.74 1009.97 1009.56 1009.33 1008.66 1007.22 1007.03 1007.75 1007.91 1007.17 1006.46 1005.78 1005.05 1004.20 1003.68 1003.49 1003.39 1003.30 1003.44 1003.90 1004.29 1004.42 1003.75 1003.54 1002.84 1002.41 1001.76 1001.36 1001.45 1001.59 1002.01 1002.17 1001.87 1000.29 999.74 998.21 997.88 998.08 998.92 999.88 999.12 998.03 998.25
1015.34 1011.46 1010.16 1010.07 1009.35 1008.96 1008.38 1007.13 1007.30 1008.22 1008.98 1008.74 1008.22 1007.70 1007.02 1006.45 1006.02 1005.50 1005.05 1004.77 1005.01 1005.72 1006.44 1006.55 1005.96 1004.99 1004.64 1003.86 1002.98 1002.58 1001.82 1002.18 1003.34 1004.20 1003.64 1002.48 1000.00 998.94 999.03 999.82 999.74 999.80 999.53 999.26 998.92
1014.91 1011.45 1010.35 1010.01 1009.47 1008.32 1008.65 1008.98 1009.30 1008.78 1009.42 1009.54 1009.45 1009.07 1008.50 1008.31 1007.95 1007.48 1006.90 1006.45 1006.48 1007.52 1008.11 1008.44 1007.98 1006.64 1005.99 1005.33 1004.60 1003.84 1003.41 1003.68 1004.16 1005.54 1006.08 1005.56 1002.79 1001.15 999.97 1001.18 1002.30 1000.96 1000.78 1000.65 999.69
1015.99 1012.33 1010.56 1010.36 1009.81 1009.07 1009.84 1009.92 1009.66 1010.08 1010.34 1010.49 1010.48 1010.19 1009.98 1010.10 1009.80 1008.80 1008.26 1008.02 1008.17 1008.74 1009.68 1010.38 1009.50 1008.46 1007.08 1006.62 1005.24 1004.67 1004.17 1004.84 1005.28 1006.41 1006.89 1006.32 1003.67 1002.94 1001.86 1001.51 1002.04 1003.07 1003.80 1003.61 1001.93
1016.66 1012.55 1011.04 1011.04 1011.32 1011.18 1010.91 1010.63 1010.13 1010.34 1011.10 1011.41 1011.44 1011.16 1010.91 1010.67 1010.46 1010.04 1009.62 1009.35 1009.49 1009.99 1011.02 1011.59 1011.40 1010.84 1009.14 1008.56 1007.99 1006.59 1005.63 1005.75 1006.34 1006.60 1006.50 1005.95 1005.08 1003.91 1003.56 1003.04 1002.83 1003.66 1004.40 1003.50 1004.20
1016.25 1013.79 1013.95 1012.13 1011.57 1012.30 1011.88 1011.52 1010.95 1010.78 1011.31 1011.93 1011.63 1011.28 1011.38 1011.53 1011.39 1011.20 1010.90 1010.49 1010.64 1010.94 1011.21 1011.55 1011.35 1011.21 1010.21 1009.62 1008.88 1007.68 1006.72 1007.02 1006.82 1006.46 1006.46 1005.10 1005.00 1003.97 1003.23 1002.98 1002.91 1003.15 1003.88 1004.08 1004.79
1017.47 1016.40 1015.17 1014.11 1013.04 1012.69 1012.06 1011.68 1011.49 1011.78 1012.18 1012.33 1012.27 1012.18 1012.31 1012.53 1012.45 1012.24 1012.16 1012.00 1011.76 1011.64 1011.55 1011.58 1011.31 1011.39 1010.19 1010.44 1009.58 1007.98 1007.57 1007.46 1006.86 1006.53 1006.20 1005.91 1004.92 1005.12 1004.95 1004.22 1002.93 1002.90 1003.17 1004.23 1004.64
1018.63 1017.94 1016.78 1014.83 1013.31 1012.68 1011.86 1012.04 1012.52 1012.86 1012.96 1012.69 1012.79 1012.94 1012.88 1012.82 1012.91 1013.14 1013.26 1013.00 1012.59 1012.46 1012.32 1012.37 1012.17 1012.13 1010.47 1011.32 1010.10 1008.28 1008.16 1007.44 1006.88 1006.50 1006.98 1007.43 1007.29 1006.80 1006.87 1006.15 1005.13 1004.62 1003.73 1004.81 1004.53
Wind_Speed
19 19 17 16 15 15 14 13 13 13 13 14 14 13 13 12 17 7 10 3 2 3 4 14 13 12 12 15 17 14 11 13 20 19 7 14 5 8 8 4 3 3 13 13 10
20 19 18 18 17 16 16 14 13 13 13 13 13 13 12 11 11 16 9 8 4 2 9 13 12 12 11 15 13 12 12 20 16 16 3 12 9 8 5 12 5 2 11 5 9
20 19 18 18 18 16 16 15 14 13 13 12 13 13 11 12 14 14 11 9 3 6 14 19 14 9 15 14 14 16 16 20 15 11 15 7 5 7 1 10 9 14 13 10 7
21 20 20 19 19 17 16 16 15 14 13 13 12 13 13 8 4 12 11 9 7 10 16 13 9 11 15 15 13 18 16 19 11 3 7 8 8 7 11 14 5 8 7 14 10
20 21 20 19 18 17 16 15 15 14 14 14 13 12 10 11 16 16 12 9 9 13 17 12 12 12 16 15 15 9 15 12 11 5 5 11 11 12 13 9 14 5 2 3 4
22 21 21 20 19 18 16 15 13 13 13 12 11 11 10 15 16 15 12 12 13 15 10 10 10 9 13 13 13 13 13 14 10 12 12 12 14 13 15 13 13 5 9 11 11
23 23 22 21 20 19 17 15 13 12 13 13 9 6 12 17 5 15 11 11 14 6 8 8 9 9 9 14 11 11 11 13 14 14 13 10 15 19 18 13 18 9 13 12 13
24 24 24 23 22 20 19 17 14 13 13 11 7 9 10 10 11 11 12 12 5 8 7 10 7 12 14 13 7 10 15 16 17 19 14 9 15 17 20 14 11 14 14 14 13
27 26 24 24 23 22 19 17 14 9 8 4 7 10 16 3 10 12 10 11 11 7 7 6 9 13 14 11 12 16 14 19 19 18 12 15 14 19 11 15 12 14 15 15 14
27 27 26 25 23 22 20 11 6 2 6 9 12 9 16 13 13 12 14 11 10 7 9 9 9 12 12 12 12 16 18 13 13 15 16 14 17 16 15 12 16 14 15 14 15
28 27 28 27 24 19 14 5 6 7 11 14 5 13 1 6 8 11 9 8 9 11 12 15 11 12 16 15 16 16 13 16 18 6 17 18 17 15 16 17 18 17 16 15 15
31 31 30 29 25 18 6 7 9 12 13 18 24 21 19 6 10 11 12 11 12 13 15 11 15 14 11 12 14 11 14 16 16 17 16 18 19 17 17 19 20 19 16 15 15
29 31 32 32 28 6 11 9 10 12 9 18 18 11 13 14 14 13 17 14 14 15 15 16 16 9 4 11 15 11 14 15 16 16 18 17 19 19 21 23 22 21 18 15 14
28 30 30 32 6 11 6 8 10 10 8 11 9 5 5 6 16 15 16 13 14 17 16 13 15 12 9 12 12 13 15 14 14 13 12 14 16 19 18 19 15 22 17 16 15
30 31 29 13 11 7 11 11 9 7 8 11 10 5 7 12 9 15 16 17 16 17 14 14 16 10 11 14 14 14 14 15 17 17 17 19 15 16 18 19 19 17 17 14 11
32 31 25 2 8 10 13 9 6 7 8 8 8 8 10 13 9 8 10 12 13 16 17 19 20 19 19 17 16 13 19 16 16 15 16 20 19 20 17 18 14 17 18 17 17
35 34 18 11 7 12 10 7 7 8 4 1 4 3 8 9 13 12 12 12 13 13 16 21 23 23 19 20 19 18 16 14 16 13 17 21 15 13 23 8 6 6 7 6 12
36 34 9 10 9 9 7 8 9 14 12 8 3 4 9 13 14 13 12 14 16 19 18 19 19 18 16 19 16 17 13 12 15 14 20 25 21 16 12 11 11 8 7 12 12
33 7 6 2 9 6 6 6 12 9 12 12 11 11 15 17 19 6 15 11 15 17 18 17 21 21 21 21 21 18 16 15 18 19 16 19 25 25 21 15 16 10 11 10 11
11 10 1 10 7 6 6 8 13 10 11 10 12 10 15 16 12 8 9 5 14 14 16 15 17 15 18 21 20 22 17 16 12 21 22 21 21 16 14 11 12 3 29 9 9
5 6 9 12 8 6 8 5 6 8 10 10 14 15 16 17 17 18 16 16 13 14 15 15 15 17 20 16 20 18 18 15 11 15 11 18 15 16 10 14 12 3 5 19 15
7 6 8 9 4 3 4 5 2 8 8 5 7 11 12 12 14 16 17 17 15 9 8 11 8 16 20 22 25 25 24 20 11 11 5 11 19 18 24 10 22 13 20 21 14
9 7 4 8 4 5 5 9 1 5 7 5 8 10 11 9 8 9 10 11 14 13 9 8 5 13 13 13 17 17 16 16 14 4 11 12 13 17 26 27 17 10 14 23 24
6 5 3 1 3 6 8 11 5 6 3 2 10 11 9 10 9 9 15 12 13 11 9 2 8 15 16 19 21 25 27 24 19 6 16 19 25 26 23 22 22 13 14 21 17
5 5 4 6 5 7 7 9 11 8 2 6 5 5 8 8 10 13 15 13 16 15 15 12 17 18 20 22 21 24 27 24 25 25 22 25 23 24 22 22 20 13 5 10 18
6 6 10 11 10 8 5 8 4 9 4 10 13 12 10 11 13 16 16 14 15 15 15 13 16 19 24 21 23 28 24 24 26 26 27 26 27 17 25 26 22 19 11 13 10
9 11 7 9 12 7 4 6 7 9 8 7 6 10 13 13 13 13 13 16 18 18 17 17 15 15 22 19 21 22 19 22 23 19 18 12 15 18 19 23 22 20 13 5 13
Wind_Direction
0 357 352 348 343 338 333 329 325 321 317 313 311 308 309 315 298 220 244 56 178 87 324 251 219 227 239 240 229 236 260 260 257 260 275 116 170 166 11 316 262 133 57 97 131
358 353 349 346 342 336 331 326 321 317 313 310 309 308 314 325 288 261 160 142 131 87 242 232 208 211 228 225 227 232 235 252 272 343 212 144 160 203 176 250 150 77 93 119 168
353 349 346 344 340 334 326 322 317 311 308 308 309 308 311 312 271 239 167 131 185 230 257 268 281 206 233 229 217 222 246 263 329 15 345 16 141 303 218 245 217 191 162 183 211
349 346 342 340 336 331 324 320 314 308 304 304 305 309 309 263 308 135 156 154 206 261 268 247 245 237 248 244 238 233 252 253 303 287 307 297 313 258 222 254 8 350 116 173 176
345 343 339 337 332 328 322 316 310 304 301 302 308 321 311 234 253 142 154 166 227 239 243 251 242 238 255 254 236 240 262 264 257 291 247 272 262 261 273 246 278 199 186 235 270
343 341 338 334 331 326 319 312 302 294 289 289 301 319 252 274 123 150 171 174 227 236 245 275 269 293 292 274 264 246 236 267 219 238 234 243 257 250 245 260 260 180 229 221 221
341 340 337 333 330 325 319 310 298 287 284 285 292 282 273 250 157 155 200 210 239 256 274 236 296 291 230 274 266 263 275 273 251 242 244 244 251 249 246 237 236 238 228 245 233
340 338 335 332 329 324 319 310 297 284 276 265 271 266 263 242 227 197 198 226 243 257 272 310 279 275 280 273 271 270 256 254 249 220 230 232 258 244 228 212 211 231 234 228 229
338 335 333 330 327 324 318 309 295 271 241 257 228 212 255 144 210 229 223 229 216 223 251 309 272 265 257 234 259 230 244 238 246 213 197 201 250 259 193 203 217 228 232 238 239
336 332 330 328 327 322 315 286 308 260 216 201 261 254 247 235 201 226 223 245 239 232 233 225 243 240 226 247 247 239 220 228 248 158 192 231 239 252 274 212 216 243 244 245 248
335 331 327 326 325 323 318 215 203 194 226 242 260 235 126 203 157 198 209 211 233 235 243 225 240 238 246 233 246 290 308 300 301 311 199 217 227 246 264 275 259 226 232 235 244
334 331 328 326 322 318 267 259 44 329 300 254 248 234 250 230 207 227 210 212 216 239 227 254 223 247 257 306 305 292 286 279 279 281 281 277 268 267 259 258 262 261 242 234 240
332 329 328 324 319 270 245 318 337 314 281 284 240 246 230 228 221 236 209 214 239 225 249 253 300 288 239 283 279 262 269 278 284 295 298 293 270 265 256 248 248 251 250 238 242
330 328 327 328 298 324 297 359 315 1 276 239 180 201 203 205 239 234 202 218 233 253 265 266 276 279 321 275 272 277 281 277 286 290 273 271 280 281 283 282 258 222 234 234 233
331 327 328 324 310 320 347 317 341 289 277 146 121 91 162 207 108 188 241 203 241 253 241 258 279 261 232 257 282 287 305 302 299 289 286 273 272 275 269 261 255 209 213 230 211
328 323 333 219 228 306 327 322 279 233 249 154 122 184 195 221 253 131 204 224 261 256 261 270 281 279 280 279 286 295 296 279 287 274 261 264 256 264 262 263 287 239 194 203 211
326 317 317 303 324 331 324 277 242 245 0 198 135 146 242 247 211 230 195 221 237 252 254 253 248 244 249 265 256 239 250 264 253 251 255 258 253 284 294 352 329 344 197 203 221
326 311 259 251 331 326 299 260 254 278 336 47 51 300 273 279 259 243 254 259 237 236 253 268 268 268 272 263 270 276 271 273 281 274 284 302 293 286 266 277 257 226 282 189 198
318 294 248 7 314 304 265 242 255 350 5 348 331 281 271 251 246 255 280 290 295 295 299 304 297 314 309 312 305 300 276 257 272 288 281 283 292 288 286 251 227 249 248 231 191
317 289 83 335 324 276 255 248 298 43 358 333 313 320 301 303 319 244 264 275 329 347 338 325 302 289 306 314 299 286 289 275 256 268 265 269 275 282 325 2 92 286 276 237 227
252 276 40 347 309 238 254 305 53 49 33 348 336 317 310 313 314 305 306 307 11 6 355 321 293 286 286 273 274 284 284 279 254 289 281 293 265 248 280 2 342 203 306 304 269
303 288 24 349 263 245 358 1 350 3 351 324 296 292 300 323 312 303 299 305 331 29 337 338 302 288 280 292 295 289 287 285 285 276 259 289 271 290 299 318 7 339 311 299 262
310 291 67 320 327 4 25 329 311 0 350 342 304 319 335 304 296 287 307 323 341 357 30 10 298 313 298 296 259 282 304 309 293 122 267 288 276 318 315 313 335 343 341 336 331
283 300 5 27 70 355 2 294 309 138 318 310 309 302 285 278 277 282 295 301 318 322 108 316 269 265 275 285 304 298 295 296 302 286 278 267 290 293 292 299 301 331 326 322 321
264 28 32 314 30 337 298 310 295 295 122 325 298 304 325 314 297 301 292 314 316 305 285 267 267 269 274 283 283 287 287 293 287 287 284 290 280 279 284 284 282 276 263 300 306
343 346 351 289 269 294 279 274 303 303 329 308 307 306 327 303 297 300 305 300 300 299 291 286 280 282 281 289 283 279 284 288 282 280 277 276 274 318 336 333 297 281 256 221 254
8 336 294 298 283 246 287 347 317 317 287 299 299 305 298 305 328 312 290 282 275 280 278 280 275 277 278 284 288 281 285 283 290 305 343 335 338 342 354 342 337 326 347 265 237